AO-07 1 07530U 74089B 26037.02624425 -.00000050 00000-0 -21724-4 0 9993 2 07530 101.9971 48.8765 0012265 22.7839 358.4983 12.53695631344080 UO-11 1 14781U 84021B 26036.85138238 .00003200 00000-0 33425-3 0 9996 2 14781 97.7897 4.0571 0006026 256.2903 103.7644 14.90386170237565 AO-27 1 22825U 93061C 26036.75106129 .00000193 00000-0 90537-4 0 9997 2 22825 98.7051 104.1259 0009343 122.7781 237.4303 14.30902163688205 FO-29 1 24278U 96046B 26037.07751322 -.00000009 00000-0 23662-4 0 9996 2 24278 98.5422 263.7671 0350850 76.6437 287.3563 13.53266602455430 GO-32 1 25397U 98043D 26036.91939292 .00000123 00000-0 73346-4 0 9994 2 25397 98.9985 26.4237 0000721 181.8387 178.2789 14.24396805432649 ISS 1 25544U 98067A 26037.21207386 .00012979 00000-0 24775-3 0 9993 2 25544 51.6316 227.9611 0011199 69.2605 290.9583 15.48432747551452 NO-44 1 26931U 01043C 26036.91722016 .00000247 00000-0 12322-3 0 9990 2 26931 67.0487 223.7821 0007062 266.3135 93.7159 14.31893590271659 SO-50 1 27607U 02058C 26036.78226613 .00003071 00000-0 38022-3 0 9998 2 27607 64.5527 175.4412 0074415 286.4547 72.8391 14.82654339244975 CO-55 1 27844U 03031E 26037.02060227 .00000479 00000-0 22668-3 0 9996 2 27844 98.6774 47.2153 0009183 200.5124 159.5687 14.24238896173004 CO-57 1 27848U 03031J 26036.94383249 .00000403 00000-0 19611-3 0 9993 2 27848 98.6803 46.9576 0008751 219.9114 140.1422 14.23538042172703 RS-22 1 27939U 03042A 26037.35271043 .00001884 00000-0 30030-3 0 9992 2 27939 98.3399 218.0489 0010769 329.0119 149.6970 14.73161396196286 CO-58 1 28895U 05043F 26036.97653185 .00002891 00000-0 46647-3 0 9995 2 28895 98.2781 190.0161 0013158 260.9206 99.0512 14.72174299 82440 CO-65 1 32785U 08021C 26037.19778586 .00009157 00000-0 59981-3 0 9992 2 32785 97.8167 16.1296 0011194 109.8097 250.4338 15.07905038965441 CO-66 1 32791U 08021J 26036.97079956 .00028414 00000-0 10503-2 0 9992 2 32791 97.7493 29.1271 0005441 69.7436 290.4387 15.27668637967224 RS-30 1 32953U 08025A 26037.24074557 -.00000037 00000-0 -33541-3 0 9990 2 32953 82.4989 76.8980 0018507 234.9918 124.9425 12.43174591803420 SRMSAT 1 37841U 11058D 26036.68349419 .00000536 00000-0 14731-3 0 9992 2 37841 19.9711 135.4160 0011578 196.7827 317.6264 14.11535642739218 ZACUBE-1 1 39417U 13066B 26037.31340967 .00009735 00000-0 77506-3 0 9993 2 39417 97.8175 358.9897 0040926 328.4183 31.4584 14.99930504661105 Delfi-N3xt 1 39428U 13066N 26037.18899177 .00013174 00000-0 11991-2 0 9999 2 39428 97.8351 317.8111 0075508 282.7557 76.5231 14.93124057655066 GOMX-1 1 39430U 13066Q 26037.28831471 .00003243 00000-0 49362-3 0 9996 2 39430 97.6575 245.9495 0130491 137.3982 223.7437 14.68960131650692 LO-74 1 39440U 13066AA 26037.25983930 .00006959 00000-0 65825-3 0 9991 2 39440 97.8774 345.9045 0060765 100.9771 259.8292 14.92574640657459 AO-73 1 39444U 13066AE 26036.84840315 .00016831 00000-0 11021-2 0 9996 2 39444 97.8146 5.8746 0036002 291.7835 67.9563 15.07271677659860 DTUSAT-2 1 40030U 14033W 26036.91887623 .00014656 00000-0 83499-3 0 9997 2 40030 98.0818 26.5564 0007267 335.5564 24.5319 15.12903997632825 EO-80 1 40032U 14033Y 26036.92557995 .00014118 00000-0 80185-3 0 9998 2 40032 98.0698 25.8823 0005764 261.0601 98.9976 15.13031290632809 LILACSAT-2 1 40908U 15049K 26037.28082541 .00028702 00000-0 57165-3 0 9994 2 40908 97.4854 69.4363 0007953 21.9231 338.2357 15.46836990575484 Horyu-4 1 41340U 16012D 26037.05465242 .00093152 00000-0 11976-2 0 9994 2 41340 30.9921 288.3565 0002050 60.7004 299.3852 15.57677481550165 Lapan A3 1 41603U 16040E 26037.28595840 .00006677 00000-0 21739-3 0 9995 2 41603 97.1463 37.8507 0012231 119.7333 240.5128 15.32098067534760 CAS-2T 1 41847U 16066G 26037.18743039 .00002613 00000-0 37463-3 0 9994 2 41847 98.3945 114.3764 0343361 166.7614 194.2877 14.44353790485882 TechnoSat 1 42829U 17042E 26036.96146433 .00006002 00000-0 43729-3 0 9998 2 42829 97.4098 199.8241 0018025 176.4802 183.6554 15.03978372466971 AO-91 1 43017U 17073E 26036.06900093 .00012056 00000-0 54921-3 0 9995 2 43017 97.4898 266.0622 0159099 64.1463 297.6076 15.10127368445434 S-Net D 1 43186U 18014G 26037.17772050 .00008272 00000-0 44342-3 0 9992 2 43186 97.5463 302.8474 0010226 107.7456 252.4893 15.15196778438915 S-Net B 1 43187U 18014H 26036.65838110 .00009998 00000-0 53549-3 0 9990 2 43187 97.5472 302.3141 0010961 105.5640 254.6803 15.15163012438830 S-Net A 1 43188U 18014J 26037.17720079 .00008268 00000-0 44306-3 0 9993 2 43188 97.5478 303.0147 0010834 104.6791 255.5643 15.15202631438919 S-Net C 1 43189U 18014K 26036.72761302 .00010132 00000-0 54248-3 0 9997 2 43189 97.5498 302.6224 0012315 100.1090 260.1532 15.15156682437396 Ten-Koh 1 43677U 18084G 26037.20490349 .00004998 00000-0 38375-3 0 9996 2 43677 98.0725 224.0821 0009290 197.2295 162.8615 15.02222554396492 PO-101 1 43678U 18084H 26037.30026288 .00002281 00000-0 18949-3 0 9993 2 43678 98.1067 228.0468 0008410 224.8635 135.1908 14.99805258396594 QO-100 1 43700U 18090A 26037.20308822 .00000144 00000-0 00000-0 0 9994 2 43700 0.0132 116.1235 0002381 247.7407 231.3279 1.00270973 26369 MinXSS-2 1 43758U 18099A 26036.73100695 .00047058 00000-0 12465-2 0 9996 2 43758 97.4693 109.9516 0008917 26.0406 334.1285 15.38171308393863 AO-95 1 43770U 18099N 26037.12615980 .00018282 00000-0 76568-3 0 9994 2 43770 97.4571 98.0317 0010617 90.5311 269.7143 15.23545043393243 SNUSat 2 1 43782U 18099AA 26036.66924419 .00014973 00000-0 70588-3 0 9994 2 43782 97.4258 92.1548 0011682 42.9763 317.2382 15.19524555393046 SnugLite 1 43784U 18099AC 26037.09880531 .00019027 00000-0 78814-3 0 9995 2 43784 97.4074 92.8367 0003853 51.8969 308.2615 15.23951925393339 ITASat 1 1 43786U 18099AE 26037.12130193 .00010854 00000-0 54861-3 0 9998 2 43786 97.4230 91.2908 0014673 90.2664 270.0251 15.17138289393021 EAGLET 1 1 43790U 18099AJ 26037.11788003 .00006086 00000-0 35958-3 0 9999 2 43790 97.4430 90.2298 0012955 80.3985 279.8709 15.11783013392520 ESEO 1 43792U 18099AL 26037.04964452 .00002954 00000-0 21887-3 0 9993 2 43792 97.4173 79.9640 0013621 64.9823 295.2816 15.03781843392094 JO-97 1 43803U 18099AX 26037.15590125 .00024206 00000-0 85749-3 0 9991 2 43803 97.4318 99.8497 0006529 27.5013 332.6571 15.29090147393570 Suomi 100 1 43804U 18099AY 26037.13225184 .00019258 00000-0 77019-3 0 9992 2 43804 97.4386 98.1996 0011119 30.0664 330.1210 15.25082502393423 ISAT 1 43879U 18111D 26036.74851863 .00073808 00000-0 14353-2 0 9996 2 43879 97.5909 323.8621 0008865 70.8213 289.3995 15.47299403390736 UWE-4 1 43880U 18111E 26037.20289066 .00036789 00000-0 98502-3 0 9996 2 43880 97.5860 320.4039 0011959 78.2630 281.9955 15.37863059390594 Sparrow 1 43881U 18111F 26037.28591428 .00074326 00000-0 12976-2 0 9992 2 43881 97.6107 328.5537 0008107 93.2884 266.9294 15.50398794390954 Prox-1 1 44339U 19036A 26037.03795150 .00021208 00000-0 22764-2 0 9996 2 44339 23.9950 268.0259 0007003 320.3333 39.6653 14.87023021353902 Taurus 1 1 44530U 19059C 26037.25822642 .00009884 00000-0 16445-2 0 9990 2 44530 98.6264 194.2293 0008299 2.4158 357.7085 14.70267023339395 TO-108 1 44881U 19093C 26037.24610302 .00001830 00000-0 21380-3 0 9992 2 44881 97.7672 112.6195 0014166 152.1642 208.0334 14.86268688331968 FloripaSat 1 1 44885U 19093G 26037.28203194 .00010174 00000-0 77518-3 0 9992 2 44885 97.7893 130.7336 0011916 149.8952 210.2960 15.02201255332981 RS-44 1 44909U 19096E 26037.05379586 .00000018 00000-0 18384-4 0 9999 2 44909 82.5169 66.8471 0218637 91.0035 271.6122 12.79746816285575 SALSAT 1 46495U 20068K 26036.97412362 .00013707 00000-0 51090-3 0 9991 2 46495 97.8835 32.2877 0011761 50.0949 310.1321 15.27510179295311 CSS (TIANHE-1) 1 48274U 21035A 26037.28129305 .00026464 00000-0 32987-3 0 9998 2 48274 41.4679 39.0675 0005398 12.1977 347.8991 15.59282230272706 CUTE 1 49263U 21088D 26037.22575880 .00043279 00000-0 45911-3 0 9996 2 49263 97.4266 127.7356 0004499 71.4470 288.7277 15.63970061241950 TeikyoSat 4 1 49396U 21102B 26037.04577430 .00003537 00000-0 22747-3 0 9998 2 49396 97.3836 71.5602 0012960 31.0825 329.1168 15.08958625232946 Z-Sat 1 49399U 21102E 26037.26016667 .00007678 00000-0 38938-3 0 9994 2 49399 97.3506 76.5358 0016639 349.8791 10.2106 15.17093930233585 KOSEN 1 1 49402U 21102H 26037.11407041 .00012261 00000-0 49654-3 0 9994 2 49402 97.3385 81.8687 0012977 315.6479 44.3719 15.24740337234031 HO-113 1 50466U 21131B 26037.26259764 .00000826 00000-0 26950-3 0 9999 2 50466 98.4996 130.3948 0005062 124.3790 235.7879 14.41207925216257 SNUGLITE 2 1 52899U 22065F 26037.23397799 .00001820 00000-0 35599-3 0 9990 2 52899 98.1975 182.4761 0008549 77.7715 282.4444 14.64038733191832 UmKA 1 (RS40S) 1 57172U 23091G 26037.28866609 .00009548 00000-0 45698-3 0 9991 2 57172 97.5244 96.5216 0012509 210.5366 149.5142 15.19112427144125 CubeBel-2 (EU11S) 1 57175U 23091K 26037.30184553 .00016887 00000-0 66181-3 0 9992 2 57175 97.5237 99.5533 0009942 210.3542 149.7121 15.25802634144320 RS-38S 1 57189U 23091Z 26037.28338039 .00031963 00000-0 10474-2 0 9999 2 57189 97.5259 104.4748 0008238 169.7166 190.4245 15.31553036144628 SONATE-2 1 59112U 24043Q 26036.96234896 .00043281 00000-0 80026-3 0 9992 2 59112 97.5360 180.4379 0008229 328.0393 32.0357 15.48897459107515 MO-122 1 60209U 24125G 26037.04494149 .00051609 00000-0 89023-3 0 9990 2 60209 97.2484 252.6145 0013249 348.4823 11.6124 15.50772415 89165 GRBBeta 1 60237U 24128C 26037.22668854 .00007028 00000-0 48604-3 0 9996 2 60237 61.9916 315.3507 0053916 107.7835 252.9151 15.05421137 86548 Curium One 1 60242U 24128H 26037.24169727 .00013162 00000-0 78760-3 0 9991 2 60242 61.9801 308.7769 0053965 104.5970 256.1117 15.10131295 86662 ROBUSTA-3A 1 60243U 24128J 26037.20434727 .00014005 00000-0 85281-3 0 9996 2 60243 61.9880 310.6995 0054296 102.0516 258.6670 15.09442597 86636 CatSat 1 60246U 24125J 26036.99533911 .00061764 00000-0 12533-2 0 9999 2 60246 97.2246 248.9598 0029142 308.4573 51.4062 15.45685543 87046 HYPERVIEW-1G (RS66S) 1 61772U 24199AP 26037.30545869 .00104254 00000-0 15967-2 0 9992 2 61772 97.3141 272.6475 0010899 44.0663 316.1457 15.53919850114226 AO-123 1 61781U 24199AY 26037.29912976 .00018194 00000-0 56342-3 0 9997 2 61781 97.3197 267.1803 0015846 60.6566 299.6257 15.33384699113850 HADES-R (SO-124) 1 62690U 25009CK 26032.99082617 .05626080 23964-5 28012-2 0 9995 2 62690 97.3531 123.7793 0009684 299.0082 61.0237 16.20766182 58845 HYDRA-T 1 62692U 25009CM 26028.19742799 .10589489 24473-5 20739-2 0 9999 2 62692 97.3569 119.0624 0010828 297.3030 62.7162 16.31546071 58115 JINJUSat 1B 1 63210U 25052A 26036.60716453 .00028839 00000-0 10256-2 0 9991 2 63210 97.4160 293.4965 0003444 158.7126 201.4257 15.28939584 49967 NUSHSAT 1 1 63211U 25052B 26036.68891656 .00033453 00000-0 11364-2 0 9998 2 63211 97.4138 293.7893 0003241 159.3690 200.7682 15.30404187 49990 TEVEL2-4 1 63213U 25052D 26036.65159615 .00031897 00000-0 11130-2 0 9990 2 63213 97.4060 293.1828 0002017 165.3916 194.7383 15.29543141 49976 TEVEL2-5 1 63214U 25052E 26036.66021073 .00031781 00000-0 11126-2 0 9995 2 63214 97.4061 293.1701 0001929 165.8392 194.2902 15.29438288 49979 TEVEL2-6 1 63215U 25052F 26036.66915014 .00031727 00000-0 11121-2 0 9998 2 63215 97.4062 293.1655 0001945 169.0144 191.1139 15.29396215 49979 TEVEL2-1 1 63217U 25052H 26036.13547139 .00025866 00000-0 91958-3 0 9995 2 63217 97.4039 292.3974 0001532 191.9962 168.1242 15.28978078 49885 TEVEL2-3 1 63218U 25052J 26036.65729192 .00031347 00000-0 11108-2 0 9993 2 63218 97.4037 292.9258 0001446 188.1596 171.9621 15.29042901 49960 TEVEL2-2 1 63219U 25052K 26036.65972133 .00030493 00000-0 10818-2 0 9997 2 63219 97.4039 292.9201 0001530 190.7895 169.3313 15.29012883 49961 TEVEL2-9 1 63237U 25052AD 26036.67873678 .00028638 00000-0 10674-2 0 9991 2 63237 97.4098 292.5625 0004617 243.8232 116.2533 15.27391755 49923 TEVEL2-7 1 63238U 25052AE 26037.15742634 .00023265 00000-0 87277-3 0 9998 2 63238 97.4102 292.9990 0004748 238.9425 121.1348 15.27220595 49992 TEVEL2-8 1 63239U 25052AF 26036.63979637 .00028411 00000-0 10660-2 0 9995 2 63239 97.4101 292.4667 0004676 243.9521 116.1237 15.27172841 49914 HYDRA-W 1 63490U 25052BL 26037.28576619 .00145219 00000-0 22969-2 0 9990 2 63490 97.3997 297.2669 0003718 191.7198 168.3969 15.52933957 50303 HADES-ICM (SO-125) 1 63492U 25052BN 26036.66560114 .00141387 00000-0 25651-2 0 9999 2 63492 97.4003 296.1435 0003805 209.7437 150.3598 15.49070261 50176 Dragonfly 1 65729U 98067XH 26031.05194254 .08662331 12285-4 96629-3 0 9997 2 65729 51.6000 237.6139 0006569 265.0285 94.9990 16.36242872 20999 RSP-03 1 65732U 98067XL 26037.28991110 .00686009 21986-3 14013-2 0 9991 2 65732 51.6170 208.8619 0006357 280.1616 79.8676 15.98793793 21944 BOTAN 1 65942U 98067XP 26036.87431081 .00378529 00000-0 16889-2 0 9993 2 65942 51.6190 217.4098 0005661 259.2097 100.8268 15.82653618 18530 CEVROSAT1 1 66309U 25248S 26036.53636853 .00008016 00000-0 39020-3 0 9993 2 66309 45.4051 106.8099 0002584 356.9381 3.1488 15.18902372 14481 SPIRONE 1 66657U 25274H 26037.25061258 .00003775 00000-0 36924-3 0 9996 2 66657 97.7424 328.5288 0013898 89.4662 270.8150 14.92861701 10682 K-HERO 1 66660U 25274L 26037.15984191 .00004431 00000-0 42696-3 0 9992 2 66660 97.7435 328.4995 0016023 93.9391 266.3661 14.93336374 10674 SNUGLITE-III DURI 1 66661U 25274M 26036.75171336 .00004870 00000-0 46744-3 0 9992 2 66661 97.7430 328.1090 0016563 96.3946 263.9160 14.93437029 10615 SilverSat 1 66909U 98067XV 26036.75451151 .00151238 00000-0 16535-2 0 9998 2 66909 51.6266 227.1587 0002636 214.5561 145.5262 15.62300925 10189 SAKHACUBE-CHOLBON 1 67290U 25313AU 26037.26700883 .00014887 00000-0 65071-3 0 9990 2 67290 97.4064 114.1226 0011136 96.6189 263.6315 15.22130853 6040 QMR-KWT 1 67291U 25313AV 26037.26400136 .00019917 00000-0 86144-3 0 9992 2 67291 97.4062 114.1267 0010829 96.3591 263.8879 15.22429903 6040 IO-86 1 40931U 25360.30710720 .00000000 00000-0 12800-3 0 00 2 40931 6.0006 332.5373 0012733 338.8432 8.1437 14.79075515 01